EI4HQ Weather Reports


Display with metric or nautical units.
time (UTC)temp
F
wind
direction
speed
MPH
gust
MPH
rain 1hr
in
rain 24hr
in
rain mn
in
humidity
%
barometer
mb
20201204171057 40 338 17.0 37.0 0.01 0.01 0.01 89 984.6
20201204170157 40 339 19.0 38.0 0.01 0.01 0.01 89 984.4
20201204165258 40 337 19.0 43.0 0.01 0.01 0.01 88 984.1
20201204164359 40 338 18.0 43.0 0.00 0.00 0.00 87 984.2
20201204163457 41 336 16.0 38.0 0.00 0.00 0.00 86 984.3
20201204162603 41 337 19.0 41.0 0.00 0.00 0.00 84 984.2
20201204161657 42 333 17.0 36.0 0.00 0.00 0.00 83 984.0
20201204160757 42 333 17.0 35.0 0.00 0.00 0.00 82 984.3
20201204155858 42 334 17.0 43.0 0.00 0.00 0.00 81 984.4
20201204155012 42 335 16.0 33.0 0.00 0.00 0.00 80 984.3
20201204154100 42 334 14.0 33.0 0.00 0.00 0.00 81 984.4
20201204153205 42 336 16.0 38.0 0.00 0.00 0.00 81 984.4
20201204152258 42 334 14.0 39.0 0.00 0.00 0.00 82 984.2
20201204151401 42 327 9.0 24.0 0.00 0.00 0.00 82 984.5
20201204150509 42 327 9.0 24.0 0.00 0.00 0.00 82 984.6
20201204145609 42 328 8.0 18.0 0.00 0.00 0.00 81 984.5
20201204144658 42 331 11.0 35.0 0.00 0.00 0.00 81 984.6
20201204143757 43 331 10.0 19.0 0.00 0.00 0.00 81 984.6
20201204142857 43 335 12.0 36.0 0.00 0.00 0.00 81 984.8
20201204141958 43 330 9.0 24.0 0.00 0.00 0.00 81 985.0
20201204141057 43 333 10.0 23.0 0.00 0.00 0.00 82 985.2
20201204140225 43 330 8.0 21.0 0.00 0.00 0.00 82 985.3
20201204135258 42 332 9.0 18.0 0.00 0.00 0.00 83 985.5
20201204134358 42 329 8.0 20.0 0.00 0.00 0.00 83 985.4
20201204133509 42 337 11.0 24.0 0.00 0.00 0.00 83 985.6
20201204132600 42 334 10.0 20.0 0.00 0.00 0.00 84 985.7
20201204131657 42 338 12.0 24.0 0.00 0.00 0.00 84 985.7
20201204130757 42 341 17.0 37.0 0.00 0.00 0.00 83 985.8
20201204125900 42 339 13.0 27.0 0.00 0.00 0.00 84 985.9
20201204125007 42 340 11.0 27.0 0.00 0.00 0.00 84 985.8
20201204124100 42 338 13.0 25.0 0.00 0.00 0.00 84 985.8
20201204123158 42 339 17.0 33.0 0.00 0.00 0.00 84 986.0
20201204122257 42 337 13.0 25.0 0.00 0.00 0.00 84 985.9
20201204121357 42 338 13.0 23.0 0.00 0.00 0.00 85 985.9
20201204120457 42 338 13.0 28.0 0.00 0.00 0.00 85 986.0
20201204115558 41 338 13.0 27.0 0.00 0.00 0.00 87 986.1
20201204114701 41 338 11.0 24.0 0.00 0.00 0.00 87 986.0
20201204113801 41 334 9.0 21.0 0.00 0.00 0.00 87 986.1
20201204112859 41 334 10.0 25.0 0.00 0.00 0.00 88 986.2
20201204111956 40 336 12.0 23.0 0.00 0.00 0.00 88 986.3
20201204111057 40 336 11.0 19.0 0.00 0.00 0.00 88 986.4
20201204110156 40 337 11.0 24.0 0.00 0.00 0.00 88 986.4
20201204105256 40 337 11.0 23.0 0.00 0.00 0.00 88 986.4
20201204104357 35 338 10.0 23.0 0.00 0.00 0.00 91 986.3
20201204103458 35 336 9.0 19.0 0.00 0.00 0.00 91 986.3
20201204102557 35 337 9.0 23.0 0.00 0.00 0.00 91 986.1
20201204101658 35 337 8.0 22.0 0.00 0.00 0.00 91 986.1
20201204100800 35 335 7.0 19.0 0.00 0.00 0.00 91 986.1
20201204095856 35 337 8.0 18.0 0.00 0.00 0.00 91 986.0
20201204094956 35 332 7.0 15.0 0.00 0.00 0.00 91 986.0
20201204094056 35 332 6.0 17.0 0.00 0.00 0.00 91 985.9
20201204093159 35 332 6.0 17.0 0.00 0.00 0.00 91 985.9
20201204092256 35 336 7.0 15.0 0.00 0.00 0.00 91 986.1
20201204091356 35 339 9.0 17.0 0.00 0.00 0.00 91 986.0
20201204090457 35 338 8.0 21.0 0.00 0.00 0.00 91 986.1
20201204085556 35 331 6.0 15.0 0.00 0.00 0.00 91 986.2
20201204084700 35 326 5.0 16.0 0.00 0.00 0.00 91 986.0
20201204083759 35 332 6.0 16.0 0.00 0.00 0.00 91 985.9
20201204082859 35 334 6.0 15.0 0.00 0.00 0.00 91 985.8
20201204082010 35 332 6.0 18.0 0.00 0.00 0.00 91 985.8
20201204081057 35 333 6.0 14.0 0.00 0.00 0.00 91 985.8
20201204080200 35 333 6.0 14.0 0.00 0.00 0.00 91 985.7
20201204075259 35 340 7.0 17.0 0.00 0.00 0.00 91 985.8
20201204074400 35 338 6.0 14.0 0.00 0.00 0.00 91 985.9
20201204073459 35 337 6.0 11.0 0.00 0.00 0.00 91 985.8
20201204072557 35 336 7.0 14.0 0.00 0.00 0.00 91 985.8
20201204071714 35 334 7.0 15.0 0.00 0.00 0.00 91 985.8
20201204070756 35 338 9.0 20.0 0.00 0.00 0.00 91 985.9
20201204065856 35 338 11.0 24.0 0.00 0.00 0.00 91 985.7
20201204064956 35 338 10.0 22.0 0.00 0.00 0.00 91 985.7
20201204064059 35 337 12.0 28.0 0.00 0.00 0.00 91 985.6
20201204063156 35 336 11.0 25.0 0.00 0.00 0.00 91 985.5
20201204062256 35 329 8.0 21.0 0.00 0.00 0.00 91 985.4
20201204061357 35 330 9.0 18.0 0.00 0.00 0.00 91 985.3
20201204060456 35 335 12.0 28.0 0.00 0.00 0.00 91 985.2
20201204055556 35 337 13.0 23.0 0.00 0.00 0.00 91 985.2
20201204054656 35 339 12.0 23.0 0.00 0.00 0.00 91 984.9
20201204053757 35 338 12.0 25.0 0.00 0.00 0.00 91 984.8
20201204052857 35 339 14.0 27.0 0.00 0.00 0.00 91 984.6
20201204051956 35 339 13.0 26.0 0.00 0.00 0.00 91 984.6
20201204051056 35 343 12.0 26.0 0.00 0.00 0.00 91 984.5
20201204050156 35 339 11.0 21.0 0.00 0.00 0.00 91 984.5
20201204045301 35 339 9.0 17.0 0.00 0.00 0.00 91 984.7
20201204044357 35 341 10.0 19.0 0.00 0.00 0.00 91 984.8
20201204043457 35 340 9.0 19.0 0.00 0.00 0.00 91 984.8
20201204042556 35 339 5.0 15.0 0.00 0.00 0.00 91 984.8
20201204041702 35 311 2.0 5.0 0.00 0.00 0.00 91 984.9
20201204040756 35 306 2.0 5.0 0.00 0.00 0.00 91 984.9
20201204035856 35 349 2.0 9.0 0.00 0.00 0.00 91 984.7
20201204034956 35 18 3.0 9.0 0.00 0.00 0.00 91 984.7
20201204034056 35 31 2.0 8.0 0.00 0.00 0.00 91 984.5
20201204033156 35 43 2.0 5.0 0.00 0.00 0.00 91 984.6
20201204032258 35 38 3.0 7.0 0.00 0.00 0.00 91 984.7
20201204031359 35 4 3.0 9.0 0.00 0.00 0.00 91 984.6
20201204030456 35 338 5.0 16.0 0.00 0.00 0.00 91 984.5
20201204025602 35 337 6.0 15.0 0.00 0.00 0.00 91 984.4
20201204024657 35 335 6.0 13.0 0.00 0.00 0.00 91 984.4
20201204023757 35 336 6.0 17.0 0.00 0.00 0.00 91 984.2
20201204022856 35 339 4.0 11.0 0.00 0.00 0.00 91 984.2
20201204022000 35 342 3.0 10.0 0.00 0.00 0.00 91 984.1
20201204021058 35 352 4.0 8.0 0.00 0.00 0.00 91 984.3
20201204020156 35 348 4.0 9.0 0.00 0.00 0.00 91 984.3
20201204015308 35 343 4.0 11.0 0.00 0.00 0.00 91 984.3
20201204014356 35 344 7.0 12.0 0.00 0.00 0.00 91 984.3
20201204013456 35 342 7.0 14.0 0.00 0.00 0.00 91 984.3
20201204012602 35 341 7.0 15.0 0.00 0.00 0.00 91 984.2
20201204011657 35 339 9.0 17.0 0.00 0.00 0.00 91 984.3
20201204010756 35 342 9.0 15.0 0.00 0.00 0.00 91 984.2
20201204005859 35 341 9.0 17.0 0.00 0.00 0.00 91 984.3
20201204004956 35 337 10.0 17.0 0.00 0.00 0.00 91 984.2
20201204004056 35 337 8.0 18.0 0.00 0.00 0.00 91 984.0
20201204003156 35 334 7.0 16.0 0.00 0.00 0.00 91 984.0
20201204002256 35 332 7.0 15.0 0.00 0.00 0.00 91 983.9
20201204001400 35 337 10.0 19.0 0.00 0.00 0.00 91 983.9
20201204000500 35 338 11.0 24.0 0.00 0.00 0.00 91 983.8
20201203235557 35 337 9.0 18.0 0.00 0.00 0.00 91 983.8
20201203234657 35 336 8.0 18.0 0.00 0.00 0.00 91 983.8
20201203233756 35 336 9.0 18.0 0.00 0.00 0.00 91 983.8
20201203232858 35 337 10.0 20.0 0.00 0.00 0.00 91 983.8
20201203231956 35 339 9.0 17.0 0.00 0.00 0.00 91 983.9
20201203231056 35 337 7.0 15.0 0.00 0.00 0.00 91 983.9
20201203230203 35 337 6.0 12.0 0.00 0.00 0.00 91 984.0
20201203225256 35 339 6.0 13.0 0.00 0.00 0.00 91 984.1
20201203224356 35 338 6.0 14.0 0.00 0.00 0.00 91 984.0
20201203223456 35 338 7.0 13.0 0.00 0.00 0.00 91 983.9
20201203222556 35 339 7.0 13.0 0.00 0.00 0.00 91 983.8
20201203221656 35 339 6.0 12.0 0.00 0.00 0.00 91 983.8
20201203220756 35 339 7.0 14.0 0.00 0.00 0.00 91 983.7
20201203215857 35 338 6.0 12.0 0.00 0.00 0.00 91 983.8
20201203214956 35 338 4.0 10.0 0.00 0.00 0.00 91 983.6
20201203214056 35 332 3.0 8.0 0.00 0.00 0.00 91 983.6
20201203213156 35 321 3.0 7.0 0.00 0.00 0.00 91 983.8
20201203212301 35 329 3.0 6.0 0.00 0.00 0.00 91 983.8
20201203211401 35 322 3.0 5.0 0.00 0.00 0.00 91 983.7
20201203210456 35 326 3.0 7.0 0.00 0.00 0.00 91 983.7
20201203205557 35 332 4.0 9.0 0.00 0.00 0.00 91 983.7
20201203204706 35 328 4.0 8.0 0.00 0.00 0.00 91 983.7
20201203203758 35 329 4.0 10.0 0.00 0.00 0.00 91 983.5
20201203202856 35 321 4.0 8.0 0.00 0.00 0.00 91 983.5
20201203201958 35 324 4.0 9.0 0.00 0.00 0.00 91 983.5
20201203201102 35 338 5.0 11.0 0.00 0.00 0.00 91 983.6
20201203200156 35 340 6.0 12.0 0.00 0.00 0.00 91 983.5
20201203195258 35 345 7.0 12.0 0.00 0.00 0.00 91 983.6
20201203194357 35 344 5.0 10.0 0.00 0.00 0.00 91 983.6
20201203193456 35 344 5.0 11.0 0.00 0.00 0.00 91 983.4
20201203192557 35 337 4.0 8.0 0.00 0.00 0.00 91 983.4
20201203191658 35 306 3.0 11.0 0.00 0.00 0.00 91 983.4
20201203190756 35 305 3.0 6.0 0.00 0.00 0.00 91 983.4
20201203185856 35 330 4.0 11.0 0.00 0.00 0.00 91 983.4
20201203185020 35 331 5.0 9.0 0.00 0.00 0.00 91 983.4
20201203184056 35 335 4.0 12.0 0.00 0.00 0.00 91 983.4
20201203183156 35 335 4.0 10.0 0.00 0.00 0.00 91 983.4
20201203182257 35 340 6.0 12.0 0.00 0.00 0.00 91 983.5
20201203181356 35 344 7.0 11.0 0.00 0.00 0.00 91 983.5
20201203180456 35 347 6.0 10.0 0.00 0.00 0.00 91 983.6
20201203175556 35 343 5.0 9.0 0.00 0.00 0.00 91 983.6
20201203174658 35 334 3.0 9.0 0.00 0.00 0.00 91 983.6
20201203173756 35 320 3.0 10.0 0.00 0.00 0.00 91 983.5
20201203172900 36 309 3.0 11.0 0.00 0.00 0.00 91 983.4
20201203171956 36 301 3.0 8.0 0.00 0.00 0.00 90 983.5